Dover FAWN current weather conditions

sailwx.info

Wind from 278 at 0 knots

Air temperature 11.7° C
Dewpoint 10.3° C

Last reported at 2019-Mar-22 06:00 UTC.
Time now 2019-Mar-22 06:29 UTC

Location: N 28°01' W 082°14'.
View on Google Maps.

See reports from other nearby stations

  
Tides and Currents Weather Stations Pressure Air Temp Water Temp Dewpoint Dewpoint Depression Visibility Wind Speed Wind Dir Waves Ship Positions
date/time (UTC)wind fromknots sea level pressurealtimeterstation pressurevisibilityair tempwater tempwave heightnotes
2019-Mar-22 06:00 278 0 11.7
2019-Mar-22 05:45 242 0 11.9
2019-Mar-22 05:30 220 0 12.1
2019-Mar-22 05:15 325 0 12.6
2019-Mar-22 05:00 329 1 13.1
2019-Mar-22 04:45 336 1 13.8
2019-Mar-22 04:30 321 1 14.4
2019-Mar-22 04:15 315 2 14.7
2019-Mar-22 04:00 319 2 14.6
2019-Mar-22 03:45 316 2 14.7
2019-Mar-22 03:30 315 1 14.8
2019-Mar-22 03:15 305 1 15.4
2019-Mar-22 03:00 306 2 15.9
2019-Mar-22 02:45 309 2 16.2
2019-Mar-22 02:30 304 3 16.5
2019-Mar-22 02:15 303 3 16.6
2019-Mar-22 02:00 299 2 16.6
2019-Mar-22 01:45 299 2 16.8
2019-Mar-22 01:30 300 2 17.0
2019-Mar-22 01:15 292 2 17.2
2019-Mar-22 01:00 294 2 17.4
2019-Mar-22 00:45 296 2 17.7
2019-Mar-22 00:30 288 2 17.9
2019-Mar-22 00:15 296 3 18.1
2019-Mar-22 00:00 292 3 18.4
2019-Mar-21 23:45 298 4 18.7
2019-Mar-21 23:30 293 5 19.2
2019-Mar-21 23:15 298 4 19.8
2019-Mar-21 23:00 305 6 20.2
2019-Mar-21 22:45 312 5 20.6
2019-Mar-21 22:30 310 6 20.8
2019-Mar-21 22:15 305 7 21.1
2019-Mar-21 22:00 316 8 21.3
2019-Mar-21 21:45 313 8 21.5
2019-Mar-21 21:30 308 7 21.7
2019-Mar-21 21:15 310 8 21.9
2019-Mar-21 21:00 318 8 22.1
2019-Mar-21 20:45 309 7 22.2
2019-Mar-21 20:30 309 8 22.1
2019-Mar-21 20:15 315 8 22.2
2019-Mar-21 20:00 316 7 22.4
2019-Mar-21 19:45 310 7 22.4
2019-Mar-21 19:30 305 6 22.4
2019-Mar-21 19:15 312 7 22.4
2019-Mar-21 19:00 324 8 22.5
2019-Mar-21 18:45 317 7 22.4
2019-Mar-21 18:30 312 7 22.2
2019-Mar-21 18:15 321 7 22.3
2019-Mar-21 18:00 304 7 22.3
2019-Mar-21 17:45 326 6 22.3
2019-Mar-21 17:30 314 6 22.0
2019-Mar-21 17:15 315 6 21.7
2019-Mar-21 17:00 323 6 21.5
2019-Mar-21 16:45 322 5 21.5
2019-Mar-21 16:30 314 6 21.3
2019-Mar-21 16:15 323 4 20.7
2019-Mar-21 16:00 336 5 20.3
2019-Mar-21 15:45 331 4 20.0
2019-Mar-21 15:30 343 5 19.5
2019-Mar-21 15:15 343 6 19.1
2019-Mar-21 15:00 350 7 18.9
2019-Mar-21 14:45 344 6 18.3
2019-Mar-21 14:30 346 6 17.7
2019-Mar-21 14:15 337 5 17.3
2019-Mar-21 14:00 340 6 16.4
2019-Mar-21 13:45 338 6 16.1
2019-Mar-21 13:30 328 5 15.7
2019-Mar-21 13:15 332 4 15.1
2019-Mar-21 13:00 326 3 14.3
2019-Mar-21 12:45 314 1 13.9
2019-Mar-21 12:30 310 1 13.6
2019-Mar-21 12:15 319 2 13.4
2019-Mar-21 12:00 320 1 12.9
2019-Mar-21 11:45 332 1 12.2
2019-Mar-21 11:30 321 0 12.0
2019-Mar-21 11:15 288 0 12.2
2019-Mar-21 11:00 001 0 12.4
2019-Mar-21 10:45 303 0 12.4
2019-Mar-21 10:30 358 0 12.7
2019-Mar-21 10:15 347 0 12.8
2019-Mar-21 10:00 036 0 13.1
2019-Mar-21 09:45 293 0 13.1
2019-Mar-21 09:30 104 0 13.5
2019-Mar-21 09:15 013 0 13.8
2019-Mar-21 09:00 332 0 14.1
2019-Mar-21 08:45 004 1 14.2
2019-Mar-21 08:30 275 0 14.4
2019-Mar-21 08:15 345 0 14.7
2019-Mar-21 08:00 332 1 15.1
2019-Mar-21 07:45 335 1 15.1
2019-Mar-21 07:30 355 1 15.0
2019-Mar-21 07:15 349 1 14.8
2019-Mar-21 07:00 321 0 14.9
2019-Mar-21 06:45 348 0 15.2
2019-Mar-21 06:30 012 1 14.9
2019-Mar-21 06:15 344 1 14.5
2019-Mar-21 06:00 336 0 14.3
2019-Mar-21 05:45 349 0 14.5
2019-Mar-21 05:30 348 0 14.7
2019-Mar-21 05:15 324 0 15.1
2019-Mar-21 05:00 358 1 15.5
2019-Mar-21 04:45 011 0 16.0
2019-Mar-21 04:30 006 1 16.4
2019-Mar-21 04:15 003 0 16.8
2019-Mar-21 04:00 016 1 17.2
2019-Mar-21 03:45 360 1 17.5
2019-Mar-21 03:30 343 1 17.8
2019-Mar-21 03:15 342 2 17.8
2019-Mar-21 03:00 329 1 17.5
2019-Mar-21 02:45 319 2 17.5
2019-Mar-21 02:30 245 0 17.8
2019-Mar-21 02:15 324 0 18.5
2019-Mar-21 02:00 129 0 19.3
2019-Mar-21 01:45 077 1 19.8
2019-Mar-21 01:30 054 1 20.0
2019-Mar-21 01:15 058 1 20.1
2019-Mar-21 01:00 052 0 20.3
2019-Mar-21 00:45 054 1 20.4
2019-Mar-21 00:30 048 1 20.6
2019-Mar-21 00:15 066 1 20.7
2019-Mar-21 00:00 064 1 20.9
2019-Mar-20 23:45 067 1 21.2
2019-Mar-20 23:30 051 2 21.5
2019-Mar-20 23:15 054 1 21.7
2019-Mar-20 23:00 037 2 21.9
2019-Mar-20 22:45 051 2 22.1
2019-Mar-20 22:30 081 1 22.3
2019-Mar-20 22:15 056 1 22.4
2019-Mar-20 22:00 044 3 22.5
2019-Mar-20 21:45 044 3 22.5
2019-Mar-20 21:30 041 3 22.3
2019-Mar-20 21:15 040 3 22.3
2019-Mar-20 21:00 033 3 22.6
2019-Mar-20 20:45 068 2 23.0
2019-Mar-20 20:30 041 3 22.7
2019-Mar-20 20:15 22.8
2019-Mar-20 20:00 043 3 22.4
2019-Mar-20 19:45 046 4 22.3
2019-Mar-20 19:30 011 5 22.3
2019-Mar-20 19:15 049 3 22.3
2019-Mar-20 19:00 064 4 22.2
2019-Mar-20 18:45 036 4 22.0
2019-Mar-20 18:30 056 3 21.9
2019-Mar-20 18:15 037 5 21.9
2019-Mar-20 18:00 033 4 22.0
2019-Mar-20 17:45 060 3 22.2
2019-Mar-20 17:30 041 5 22.4
2019-Mar-20 17:15 034 5 21.9
2019-Mar-20 17:00 048 4 21.7
2019-Mar-20 16:45 061 4 21.5
2019-Mar-20 16:30 054 4 21.4
2019-Mar-20 16:15 031 4 21.2
2019-Mar-20 16:00 033 5 20.4
2019-Mar-20 15:45 015 5 20.7
2019-Mar-20 15:30 052 4 19.9
2019-Mar-20 15:15 029 4 19.7
2019-Mar-20 15:00 027 5 19.4
2019-Mar-20 14:45 033 5 19.1
2019-Mar-20 14:30 038 3 18.5
2019-Mar-20 14:15 036 4 17.6
2019-Mar-20 14:00 041 5 17.4
2019-Mar-20 13:45 040 5 17.2
2019-Mar-20 13:30 042 5 16.5
2019-Mar-20 13:15 048 4 16.0
2019-Mar-20 13:00 035 3 15.7
2019-Mar-20 12:45 041 3 15.6
2019-Mar-20 12:30 038 3 15.5
2019-Mar-20 12:15 041 3 15.4
2019-Mar-20 12:00 048 3 15.3
2019-Mar-20 11:45 049 3 15.2
2019-Mar-20 11:30 046 3 15.2
2019-Mar-20 11:15 046 3 15.1
2019-Mar-20 11:00 043 3 15.0
2019-Mar-20 10:45 030 4 14.9
2019-Mar-20 10:30 024 4 14.8
2019-Mar-20 10:15 017 4 14.8
2019-Mar-20 10:00 022 4 14.8
2019-Mar-20 09:45 012 4 14.8
2019-Mar-20 09:30 024 4 14.8
2019-Mar-20 09:15 033 4 14.8
2019-Mar-20 09:00 034 4 14.7
2019-Mar-20 08:45 021 4 14.7
2019-Mar-20 08:30 024 4 14.7
2019-Mar-20 08:15 027 5 14.7
2019-Mar-20 08:00 026 4 14.7
2019-Mar-20 07:45 018 4 14.7
2019-Mar-20 07:30 018 3 14.6
2019-Mar-20 07:15 015 3 14.5
2019-Mar-20 07:00 013 5 14.5
2019-Mar-20 06:45 022 4 14.4
2019-Mar-20 06:30 021 4 14.3
2019-Mar-20 06:15 032 5 14.3
2019-Mar-20 06:00 016 6 14.3